• In Deutschland
  • Länderverzeichnis
  • Für 7 Tage
  • Wassertemperatur
  • Satellitenkarten
  • Wetterkarte
  • Widgets
  • user-avatar
    Anmelden

    Stündliche Wetter Cruzília

    Heute, 24 November, Freitag

    Zeit Temperatur Niederschläge Wind Luftdruck Luftfeuchtigkeit
    00:00 +16°C° 0 mm 2 m/S 670 mmHg 94%
    01:00 +16°C° 0 mm 2 m/S 670 mmHg 94%
    02:00 +16°C° 0 mm 2 m/S 670 mmHg 93%
    03:00 +15°C° 0 mm 2 m/S 670 mmHg 93%
    04:00 +16°C° 0 mm 2 m/S 670 mmHg 92%
    05:00 +16°C° 0 mm 1 m/S 670 mmHg 91%
    06:00 +16°C° 0 mm 1 m/S 671 mmHg 91%
    07:00 +19°C° 0 mm 1 m/S 671 mmHg 87%
    08:00 +19°C° 0 mm 2 m/S 672 mmHg 83%
    09:00 +20°C° 0 mm 2 m/S 672 mmHg 79%
    10:00 +21°C° 0 mm 2 m/S 672 mmHg 78%
    11:00 +23°C° 0 mm 2 m/S 672 mmHg 76%
    12:00 +24°C° 0 mm 1 m/S 672 mmHg 74%
    13:00 +24°C° 0 mm 1 m/S 672 mmHg 71%
    14:00 +25°C° 0 mm 1 m/S 672 mmHg 68%
    15:00 +26°C° 0 mm 1 m/S 672 mmHg 65%
    16:00 +25°C° 0 mm 1 m/S 671 mmHg 70%
    17:00 +24°C° 0 mm 1 m/S 671 mmHg 75%
    18:00 +23°C° 0 mm 1 m/S 671 mmHg 80%
    19:00 +22°C° 0 mm 1 m/S 671 mmHg 85%
    20:00 +20°C° 0 mm 1 m/S 671 mmHg 89%
    21:00 +18°C° 0 mm 2 m/S 671 mmHg 94%
    22:00 +18°C° 0 mm 2 m/S 671 mmHg 95%
    23:00 +18°C° 0 mm 2 m/S 671 mmHg 95%

    Morgen, 25 November, Samstag

    Zeit Temperatur Niederschläge Wind Luftdruck Luftfeuchtigkeit
    00:00 +18°C° 0 mm 2 m/S 672 mmHg 96%
    01:00 +18°C° 0 mm 1 m/S 671 mmHg 96%
    02:00 +18°C° 0 mm 1 m/S 671 mmHg 96%
    03:00 +18°C° 0 mm 1 m/S 671 mmHg 97%
    04:00 +18°C° 0 mm 1 m/S 671 mmHg 96%
    05:00 +18°C° 0 mm 1 m/S 671 mmHg 95%
    06:00 +18°C° 0 mm 1 m/S 671 mmHg 94%
    07:00 +19°C° 0 mm 2 m/S 672 mmHg 87%
    08:00 +21°C° 0 mm 2 m/S 673 mmHg 80%
    09:00 +24°C° 0 mm 2 m/S 673 mmHg 73%
    10:00 +25°C° 0,1 mm 2 m/S 673 mmHg 69%
    11:00 +27°C° 0,1 mm 2 m/S 673 mmHg 64%
    12:00 +28°C° 0,1 mm 2 m/S 673 mmHg 60%
    13:00 +28°C° 0,7 mm 2 m/S 672 mmHg 62%
    14:00 +27°C° 0,7 mm 2 m/S 672 mmHg 64%
    15:00 +27°C° 0,7 mm 2 m/S 671 mmHg 66%
    16:00 +26°C° 1 mm 2 m/S 671 mmHg 73%
    17:00 +24°C° 1 mm 1 m/S 670 mmHg 79%
    18:00 +23°C° 1 mm 1 m/S 670 mmHg 86%
    19:00 +22°C° 1,1 mm 1 m/S 670 mmHg 88%
    20:00 +21°C° 1,1 mm 1 m/S 671 mmHg 90%
    21:00 +19°C° 1,1 mm 1 m/S 671 mmHg 92%
    22:00 +18°C° 1 mm 2 m/S 671 mmHg 93%
    23:00 +18°C° 1 mm 2 m/S 671 mmHg 93%

    übermorgen, 26 November, Sonntag

    Zeit Temperatur Niederschläge Wind Luftdruck Luftfeuchtigkeit
    00:00 +18°C° 1 mm 2 m/S 671 mmHg 94%
    01:00 +18°C° 0 mm 2 m/S 670 mmHg 94%
    02:00 +18°C° 0 mm 2 m/S 670 mmHg 94%
    03:00 +17°C° 0 mm 2 m/S 669 mmHg 94%
    04:00 +17°C° 0,1 mm 2 m/S 669 mmHg 94%
    05:00 +17°C° 0,1 mm 2 m/S 670 mmHg 93%
    06:00 +17°C° 0,1 mm 2 m/S 670 mmHg 93%
    07:00 +19°C° 0 mm 2 m/S 671 mmHg 86%
    08:00 +21°C° 0 mm 2 m/S 671 mmHg 79%
    09:00 +24°C° 0 mm 3 m/S 672 mmHg 71%
    10:00 +25°C° 0,2 mm 3 m/S 672 mmHg 69%
    11:00 +26°C° 0,2 mm 3 m/S 671 mmHg 68%
    12:00 +26°C° 0,2 mm 3 m/S 671 mmHg 66%
    13:00 +26°C° 0,8 mm 3 m/S 670 mmHg 68%
    14:00 +26°C° 0,8 mm 3 m/S 670 mmHg 70%
    15:00 +26°C° 0,8 mm 3 m/S 669 mmHg 72%
    16:00 +25°C° 1,5 mm 2 m/S 669 mmHg 78%
    17:00 +23°C° 1,5 mm 1 m/S 669 mmHg 84%
    18:00 +22°C° 1,5 mm 1 m/S 669 mmHg 90%
    19:00 +21°C° 1,1 mm 1 m/S 669 mmHg 90%
    20:00 +21°C° 1,1 mm 1 m/S 670 mmHg 91%
    21:00 +20°C° 1,1 mm 1 m/S 670 mmHg 92%
    22:00 +19°C° 0,9 mm 2 m/S 670 mmHg 93%
    23:00 +19°C° 0,9 mm 2 m/S 670 mmHg 93%

    27 November, Montag

    Zeit Temperatur Niederschläge Wind Luftdruck Luftfeuchtigkeit
    00:00 +19°C° 0,9 mm 2 m/S 670 mmHg 94%
    01:00 +19°C° 1,6 mm 2 m/S 669 mmHg 94%
    02:00 +19°C° 1,6 mm 2 m/S 669 mmHg 95%
    03:00 +18°C° 1,6 mm 2 m/S 669 mmHg 95%
    04:00 +18°C° 0,6 mm 2 m/S 669 mmHg 95%
    05:00 +18°C° 0,6 mm 2 m/S 669 mmHg 94%
    06:00 +18°C° 0,6 mm 2 m/S 670 mmHg 94%
    07:00 +18°C° 0,4 mm 2 m/S 670 mmHg 92%
    08:00 +19°C° 0,4 mm 2 m/S 671 mmHg 90%
    09:00 +19°C° 0,4 mm 3 m/S 671 mmHg 88%
    10:00 +20°C° 0,4 mm 3 m/S 671 mmHg 86%
    11:00 +20°C° 0,4 mm 3 m/S 671 mmHg 84%
    12:00 +21°C° 0,4 mm 3 m/S 671 mmHg 82%
    13:00 +21°C° 0,2 mm 3 m/S 670 mmHg 81%
    14:00 +23°C° 0,2 mm 2 m/S 670 mmHg 81%
    15:00 +23°C° 0,2 mm 2 m/S 669 mmHg 80%
    16:00 +21°C° 0,6 mm 2 m/S 669 mmHg 84%
    17:00 +21°C° 0,6 mm 1 m/S 669 mmHg 89%
    18:00 +21°C° 0,6 mm 1 m/S 669 mmHg 93%
    19:00 +20°C° 0,7 mm 1 m/S 670 mmHg 94%
    20:00 +20°C° 0,7 mm 1 m/S 670 mmHg 94%
    21:00 +20°C° 0,7 mm 1 m/S 670 mmHg 95%
    22:00 +20°C° 1,1 mm 1 m/S 670 mmHg 95%
    23:00 +19°C° 1,1 mm 1 m/S 670 mmHg 95%

    28 November, Dienstag

    Zeit Temperatur Niederschläge Wind Luftdruck Luftfeuchtigkeit
    00:00 +19°C° 1,1 mm 1 m/S 670 mmHg 95%
    01:00 +19°C° 0,6 mm 1 m/S 669 mmHg 96%
    02:00 +19°C° 0,6 mm 1 m/S 669 mmHg 96%
    03:00 +18°C° 0,6 mm 2 m/S 668 mmHg 96%
    04:00 +19°C° 0 mm 1 m/S 669 mmHg 96%
    05:00 +19°C° 0 mm 1 m/S 669 mmHg 96%
    06:00 +20°C° 0 mm 1 m/S 669 mmHg 95%
    07:00 +21°C° 0 mm 1 m/S 670 mmHg 90%
    08:00 +21°C° 0 mm 2 m/S 670 mmHg 86%
    09:00 +23°C° 0 mm 2 m/S 671 mmHg 81%
    10:00 +24°C° 0,4 mm 3 m/S 670 mmHg 78%
    11:00 +25°C° 0,4 mm 3 m/S 670 mmHg 74%
    12:00 +26°C° 0,4 mm 3 m/S 670 mmHg 71%
    13:00 +26°C° 0,7 mm 3 m/S 669 mmHg 74%
    14:00 +26°C° 0,7 mm 2 m/S 669 mmHg 76%
    15:00 +25°C° 0,7 mm 2 m/S 669 mmHg 78%
    16:00 +24°C° 1,2 mm 2 m/S 669 mmHg 82%
    17:00 +23°C° 1,2 mm 1 m/S 669 mmHg 87%
    18:00 +22°C° 1,2 mm 1 m/S 669 mmHg 91%
    19:00 +21°C° 1 mm 1 m/S 669 mmHg 92%
    20:00 +21°C° 1 mm 1 m/S 669 mmHg 93%
    21:00 +20°C° 1 mm 1 m/S 669 mmHg 93%
    22:00 +20°C° 0,4 mm 1 m/S 669 mmHg 94%
    23:00 +19°C° 0,4 mm 1 m/S 668 mmHg 95%

    29 November, Mittwoch

    Zeit Temperatur Niederschläge Wind Luftdruck Luftfeuchtigkeit
    00:00 +19°C° 0,4 mm 1 m/S 668 mmHg 96%
    01:00 +19°C° 0 mm 1 m/S 668 mmHg 96%
    02:00 +19°C° 0 mm 1 m/S 667 mmHg 96%
    03:00 +18°C° 0 mm 1 m/S 667 mmHg 96%
    04:00 +19°C° 0 mm 1 m/S 667 mmHg 96%
    05:00 +19°C° 0 mm 1 m/S 667 mmHg 95%
    06:00 +19°C° 0 mm 1 m/S 668 mmHg 95%
    07:00 +21°C° 0 mm 1 m/S 668 mmHg 89%
    08:00 +22°C° 0 mm 1 m/S 668 mmHg 83%
    09:00 +24°C° 0 mm 1 m/S 669 mmHg 77%
    10:00 +25°C° 0,3 mm 1 m/S 668 mmHg 75%
    11:00 +25°C° 0,3 mm 1 m/S 668 mmHg 73%
    12:00 +26°C° 0,3 mm 1 m/S 668 mmHg 70%
    13:00 +26°C° 0,7 mm 1 m/S 667 mmHg 71%
    14:00 +26°C° 0,7 mm 1 m/S 667 mmHg 72%
    15:00 +26°C° 0,7 mm 1 m/S 666 mmHg 73%
    16:00 +24°C° 1,2 mm 1 m/S 666 mmHg 78%
    17:00 +23°C° 1,2 mm 1 m/S 666 mmHg 84%
    18:00 +22°C° 1,2 mm 1 m/S 666 mmHg 89%
    19:00 +21°C° 0,4 mm 1 m/S 666 mmHg 90%
    20:00 +19°C° 0,4 mm 2 m/S 666 mmHg 92%
    21:00 +17°C° 0,4 mm 2 m/S 666 mmHg 94%
    22:00 +17°C° 0,1 mm 2 m/S 666 mmHg 95%
    23:00 +17°C° 0,1 mm 2 m/S 666 mmHg 95%
    Mehr zeigen